West Palm Beach, FL

11:27 PM EST on November 11, 2019 (GMT -0500)
Palm Beach International

Weather History for KPBI - August, 2019

Change the Weather History Date:

Monday, August 19, 2019

  Actual Average Record
Temperature  
Mean Temperature 84 °F 83 °F  
Max Temperature 90 °F 90 °F 97 °F (1938)
Min Temperature 77 °F 76 °F 69 °F (1918)
Degree Days  
Heating Degree Days 0 0  
Month to date heating degree days 0 0  
Since 1 June heating degree days 0 0  
Since 1 July heating degree days 0 0  
Cooling Degree Days 19 18  
Month to date cooling degree days 359 342  
Year to date cooling degree days 2943 2490  
Since 1 June cooling degree days 1542 1381  
Growing Degree Days 34 (Base 50)    
Moisture  
Dew Point 74 °F    
Average Humidity 72    
Maximum Humidity 88    
Minimum Humidity 56    
Precipitation  
Precipitation 0.01 in 0.26 in 4.54 in (2008)
Month to date precipitation 10.20 4.68  
Year to date precipitation 41.52 37.45  
Snow  
Snow 0.00 in - - ()
Month to date snowfall 0.0  
Since 1 June snowfall 0.0  
Since 1 July snowfall 0.0  
Snow Depth 0.00 in    
Sea Level Pressure  
Sea Level Pressure 30.06 in    
Wind  
Wind Speed 9 mph (East)    
Max Wind Speed 22 mph    
Max Gust Speed 27 mph    
Visibility 10 miles    
Events Rain    
T = Trace of Precipitation, MM = Missing Value Source: NWS Daily Summary

Daily Weather History Graph

Daily Weather History Graph

Search for Another Location

Airport or City:

Astronomy

Aug. 19, 2019 Rise Set
Actual Time 6:54 AM EDT 7:53 PM EDT
Civil Twilight 6:29 AM EDT 8:17 PM EDT
Nautical Twilight 6:01 AM EDT 8:46 PM EDT
Astronomical Twilight 5:32 AM EDT 9:15 PM EDT
Moon 10:34 PM EDT (8/19) 10:16 AM EDT (8/19)
Length of Visible Light 13h 47m
Length of Day
12h 59m
Waning Gibbous, 85% of the Moon is Illuminated
Aug 19
Waning Gibbous
Aug 23
Last Quarter
Aug 30
New
Sep 5
First Quarter
Sep 14
Full

Hourly Weather History & Observations

Time (EDT) Temp. Heat Index Dew Point Humidity Pressure Visibility Wind Dir Wind Speed Gust Speed Precip Events Conditions
12:53 AM 84.0 °F 91.9 °F 75.0 °F 74% 30.08 in 10.0 mi East 5.8 mph - N/A   Partly Cloudy
1:53 AM 84.0 °F 91.9 °F 75.0 °F 74% 30.07 in 10.0 mi East 5.8 mph - N/A   Partly Cloudy
2:53 AM 84.0 °F 91.9 °F 75.0 °F 74% 30.05 in 10.0 mi East 5.8 mph - N/A   Partly Cloudy
3:53 AM 80.1 °F 83.6 °F 71.1 °F 74% 30.05 in 10.0 mi Calm Calm - 0.01 in Rain Light Rain
4:53 AM 78.1 °F - 73.0 °F 84% 30.04 in 10.0 mi WNW 3.5 mph - 0.00 in   Partly Cloudy
5:53 AM 78.1 °F - 73.0 °F 84% 30.05 in 10.0 mi NNW 3.5 mph - N/A   Partly Cloudy
6:53 AM 77.0 °F - 73.9 °F 90% 30.05 in 10.0 mi NW 4.6 mph - N/A   Scattered Clouds
7:53 AM 81.0 °F 87.3 °F 75.9 °F 85% 30.07 in 10.0 mi Calm Calm - N/A   Scattered Clouds
8:53 AM 86.0 °F 93.8 °F 73.9 °F 67% 30.08 in 10.0 mi East 10.4 mph - N/A   Scattered Clouds
9:53 AM 86.0 °F 93.0 °F 73.0 °F 65% 30.10 in 10.0 mi East 8.1 mph - N/A   Scattered Clouds
10:53 AM 88.0 °F 97.5 °F 75.0 °F 65% 30.10 in 10.0 mi ESE 12.7 mph - N/A   Scattered Clouds
11:53 AM 89.1 °F 98.0 °F 73.9 °F 61% 30.10 in 10.0 mi ESE 12.7 mph - N/A   Scattered Clouds
12:53 PM 90.0 °F 99.0 °F 73.9 °F 59% 30.09 in 10.0 mi ENE 12.7 mph - N/A   Scattered Clouds
1:53 PM 90.0 °F 96.9 °F 72.0 °F 55% 30.08 in 10.0 mi East 12.7 mph - N/A   Scattered Clouds
2:53 PM 87.1 °F 95.4 °F 73.9 °F 65% 30.07 in 10.0 mi ENE 15.0 mph - N/A   Mostly Cloudy
3:53 PM 88.0 °F 93.8 °F 71.1 °F 57% 30.04 in 10.0 mi East 11.5 mph - N/A   Mostly Cloudy
4:53 PM 87.1 °F 93.6 °F 72.0 °F 61% 30.02 in 10.0 mi ENE 11.5 mph - N/A   Scattered Clouds
5:53 PM 87.1 °F 93.6 °F 72.0 °F 61% 30.02 in 10.0 mi ENE 11.5 mph - N/A   Scattered Clouds
6:53 PM 86.0 °F 93.0 °F 73.0 °F 65% 30.03 in 10.0 mi East 13.8 mph - N/A   Scattered Clouds
7:53 PM 84.9 °F 91.4 °F 73.0 °F 67% 30.03 in 10.0 mi East 12.7 mph - N/A   Mostly Cloudy
8:53 PM 82.9 °F 89.4 °F 73.9 °F 74% 30.05 in 10.0 mi SE 11.5 mph - N/A   Scattered Clouds
9:53 PM 82.9 °F 90.2 °F 75.0 °F 77% 30.07 in 10.0 mi ESE 10.4 mph - N/A   Scattered Clouds
10:53 PM 81.0 °F 86.2 °F 73.9 °F 79% 30.09 in 10.0 mi SE 16.1 mph 26.5 mph 0.00 in Rain Light Rain
11:53 PM 80.1 °F 83.8 °F 72.0 °F 76% 30.09 in 10.0 mi SSE 6.9 mph - 0.00 in   Scattered Clouds